When you browse on this site, cookies collect data to enhance your experience and personalize the content and advertising you see.
Visit our Privacy Policy to learn more. By continuing to use the site, you agree to this use of cookies and data.
  • In Latvia
  • List of Countries
  • For 7 days
  • Water Temperature
  • Satellite Maps
  • Weather Map
  • Weather Widgets
  • user-avatar
    Login

    Hourly Weather Haradok

    Today, 18 February, Monday

    Time Temperature Precipitation Wind Pressure Humidity
    00:00 -4°C° 0 mm 3 mps 750 mmHg 88%
    01:00 -4°C° 0 mm 3 mps 751 mmHg 89%
    02:00 -4°C° 0 mm 2 mps 751 mmHg 93%
    03:00 -5°C° 0 mm 2 mps 751 mmHg 94%
    04:00 -5°C° 0 mm 2 mps 752 mmHg 94%
    05:00 -5°C° 0 mm 2 mps 752 mmHg 95%
    06:00 -5°C° 0 mm 2 mps 753 mmHg 94%
    07:00 -6°C° 0 mm 2 mps 753 mmHg 94%
    08:00 -5°C° 0 mm 2 mps 753 mmHg 93%
    09:00 -4°C° 0 mm 2 mps 754 mmHg 88%
    10:00 -3°C° 0 mm 2 mps 754 mmHg 83%
    11:00 -2°C° 0 mm 2 mps 754 mmHg 77%
    12:00 -2°C° 0 mm 2 mps 754 mmHg 74%
    13:00 +1°C° 0 mm 1 mps 755 mmHg 70%
    14:00 +1°C° 0 mm 1 mps 755 mmHg 66%
    15:00 +1°C° 0 mm 1 mps 754 mmHg 69%
    16:00 0°C° 0 mm 1 mps 754 mmHg 71%
    17:00 -1°C° 0 mm 1 mps 754 mmHg 73%
    18:00 -2°C° 0 mm 1 mps 754 mmHg 76%
    19:00 -2°C° 0 mm 1 mps 754 mmHg 78%
    20:00 -4°C° 0 mm 2 mps 754 mmHg 80%
    21:00 -5°C° 0 mm 2 mps 754 mmHg 80%
    22:00 -5°C° 0 mm 2 mps 754 mmHg 80%
    23:00 -6°C° 0 mm 3 mps 754 mmHg 81%

    Tomorrow, 19 February, Tuesday

    Time Temperature Precipitation Wind Pressure Humidity
    00:00 -6°C° 0 mm 3 mps 753 mmHg 80%
    01:00 -6°C° 0 mm 3 mps 753 mmHg 80%
    02:00 -7°C° 0 mm 4 mps 753 mmHg 79%
    03:00 -7°C° 0 mm 4 mps 752 mmHg 80%
    04:00 -7°C° 0 mm 4 mps 752 mmHg 80%
    05:00 -7°C° 0 mm 4 mps 751 mmHg 80%
    06:00 -7°C° 0 mm 4 mps 751 mmHg 80%
    07:00 -7°C° 0 mm 4 mps 750 mmHg 80%
    08:00 -5°C° 0 mm 4 mps 750 mmHg 80%
    09:00 -5°C° 0 mm 5 mps 749 mmHg 79%
    10:00 -4°C° 0 mm 5 mps 749 mmHg 78%
    11:00 -2°C° 0 mm 5 mps 748 mmHg 77%
    12:00 -1°C° 0 mm 5 mps 748 mmHg 79%
    13:00 -1°C° 0 mm 6 mps 747 mmHg 80%
    14:00 -1°C° 0 mm 6 mps 746 mmHg 82%
    15:00 0°C° 0 mm 5 mps 745 mmHg 84%
    16:00 0°C° 0 mm 5 mps 745 mmHg 86%
    17:00 -1°C° 0 mm 5 mps 744 mmHg 88%
    18:00 -1°C° 0 mm 5 mps 743 mmHg 89%
    19:00 -1°C° 0 mm 5 mps 743 mmHg 89%
    20:00 -1°C° 0 mm 5 mps 743 mmHg 90%
    21:00 -1°C° 0 mm 5 mps 742 mmHg 90%
    22:00 -1°C° 0 mm 5 mps 741 mmHg 90%
    23:00 -1°C° 0 mm 5 mps 741 mmHg 89%

    Day after tomorrow, 20 February, Wednesday

    Time Temperature Precipitation Wind Pressure Humidity
    00:00 -1°C° 0 mm 5 mps 741 mmHg 89%
    01:00 -1°C° 0 mm 4 mps 740 mmHg 90%
    02:00 -1°C° 0 mm 4 mps 740 mmHg 90%
    03:00 -1°C° 0 mm 4 mps 740 mmHg 91%
    04:00 0°C° 0 mm 4 mps 740 mmHg 92%
    05:00 0°C° 0 mm 4 mps 739 mmHg 93%
    06:00 0°C° 0 mm 4 mps 739 mmHg 93%
    07:00 0°C° 0 mm 4 mps 739 mmHg 93%
    08:00 0°C° 0 mm 5 mps 739 mmHg 93%
    09:00 0°C° 0 mm 5 mps 740 mmHg 90%
    10:00 +1°C° 0 mm 5 mps 740 mmHg 87%
    11:00 +1°C° 0 mm 5 mps 740 mmHg 84%
    12:00 +1°C° 0.1 mm 5 mps 740 mmHg 82%
    13:00 +1°C° 0.1 mm 6 mps 740 mmHg 80%
    14:00 +1°C° 0.1 mm 6 mps 740 mmHg 78%
    15:00 +1°C° 0 mm 6 mps 740 mmHg 79%
    16:00 +1°C° 0 mm 6 mps 740 mmHg 81%
    17:00 0°C° 0 mm 5 mps 740 mmHg 82%
    18:00 -1°C° 0 mm 6 mps 740 mmHg 83%
    19:00 -1°C° 0 mm 6 mps 740 mmHg 84%
    20:00 -1°C° 0 mm 6 mps 740 mmHg 85%
    21:00 -2°C° 0.1 mm 6 mps 740 mmHg 81%
    22:00 -2°C° 0.1 mm 7 mps 740 mmHg 77%
    23:00 -3°C° 0.1 mm 7 mps 740 mmHg 73%

    21 February, Thursday

    Time Temperature Precipitation Wind Pressure Humidity
    00:00 -3°C° 0 mm 7 mps 741 mmHg 73%
    01:00 -4°C° 0 mm 6 mps 742 mmHg 74%
    02:00 -5°C° 0 mm 6 mps 742 mmHg 75%
    03:00 -5°C° 0 mm 6 mps 742 mmHg 74%
    04:00 -5°C° 0 mm 6 mps 743 mmHg 73%
    05:00 -5°C° 0 mm 6 mps 743 mmHg 72%
    06:00 -5°C° 0 mm 6 mps 744 mmHg 71%
    07:00 -5°C° 0 mm 6 mps 744 mmHg 71%
    08:00 -5°C° 0 mm 6 mps 745 mmHg 70%
    09:00 -5°C° 0 mm 6 mps 745 mmHg 67%
    10:00 -5°C° 0 mm 6 mps 746 mmHg 64%
    11:00 -5°C° 0 mm 6 mps 746 mmHg 62%
    12:00 -5°C° 0 mm 6 mps 747 mmHg 60%
    13:00 -5°C° 0 mm 5 mps 747 mmHg 59%
    14:00 -5°C° 0 mm 5 mps 747 mmHg 58%
    15:00 -6°C° 0 mm 5 mps 748 mmHg 60%
    16:00 -5°C° 0 mm 4 mps 749 mmHg 61%
    17:00 -5°C° 0 mm 4 mps 749 mmHg 63%
    18:00 -7°C° 0 mm 4 mps 750 mmHg 63%
    19:00 -7°C° 0 mm 4 mps 751 mmHg 63%
    20:00 -7°C° 0 mm 4 mps 751 mmHg 63%
    21:00 -8°C° 0 mm 4 mps 752 mmHg 63%
    22:00 -8°C° 0 mm 4 mps 752 mmHg 63%
    23:00 -8°C° 0 mm 4 mps 753 mmHg 63%

    22 February, Friday

    Time Temperature Precipitation Wind Pressure Humidity
    00:00 -9°C° 0 mm 4 mps 754 mmHg 64%
    01:00 -9°C° 0 mm 4 mps 755 mmHg 64%
    02:00 -11°C° 0 mm 5 mps 755 mmHg 64%
    03:00 -10°C° 0 mm 4 mps 756 mmHg 64%
    04:00 -10°C° 0 mm 4 mps 757 mmHg 64%
    05:00 -11°C° 0 mm 4 mps 757 mmHg 64%
    06:00 -10°C° 0 mm 4 mps 758 mmHg 65%
    07:00 -10°C° 0 mm 4 mps 759 mmHg 66%
    08:00 -10°C° 0 mm 4 mps 760 mmHg 67%
    09:00 -9°C° 0 mm 4 mps 761 mmHg 62%
    10:00 -8°C° 0 mm 4 mps 761 mmHg 58%
    11:00 -7°C° 0 mm 4 mps 762 mmHg 53%
    12:00 -7°C° 0 mm 4 mps 762 mmHg 50%
    13:00 -5°C° 0 mm 4 mps 762 mmHg 46%
    14:00 -4°C° 0 mm 4 mps 763 mmHg 43%
    15:00 -4°C° 0 mm 4 mps 763 mmHg 45%
    16:00 -5°C° 0 mm 4 mps 763 mmHg 47%
    17:00 -5°C° 0 mm 4 mps 763 mmHg 49%
    18:00 -7°C° 0 mm 4 mps 764 mmHg 51%
    19:00 -7°C° 0 mm 4 mps 764 mmHg 54%
    20:00 -7°C° 0 mm 4 mps 764 mmHg 56%
    21:00 -7°C° 0 mm 3 mps 764 mmHg 59%
    22:00 -7°C° 0 mm 3 mps 764 mmHg 62%
    23:00 -6°C° 0 mm 2 mps 765 mmHg 65%

    23 February, Saturday

    Time Temperature Precipitation Wind Pressure Humidity
    00:00 -7°C° 0 mm 2 mps 764 mmHg 67%
    01:00 -7°C° 0 mm 2 mps 764 mmHg 70%
    02:00 -6°C° 0 mm 1 mps 764 mmHg 72%
    03:00 -7°C° 0 mm 2 mps 763 mmHg 72%
    04:00 -7°C° 0 mm 2 mps 762 mmHg 71%
    05:00 -7°C° 0 mm 2 mps 762 mmHg 70%
    06:00 -7°C° 0 mm 2 mps 761 mmHg 67%
    07:00 -6°C° 0 mm 2 mps 761 mmHg 63%
    08:00 -6°C° 0 mm 2 mps 760 mmHg 60%
    09:00 -7°C° 0.3 mm 3 mps 759 mmHg 69%
    10:00 -7°C° 0.3 mm 3 mps 758 mmHg 78%
    11:00 -7°C° 0.3 mm 4 mps 757 mmHg 86%
    12:00 -7°C° 0.3 mm 4 mps 757 mmHg 87%
    13:00 -6°C° 0.3 mm 3 mps 756 mmHg 87%
    14:00 -5°C° 0.3 mm 3 mps 755 mmHg 87%
    15:00 -5°C° 0.3 mm 3 mps 755 mmHg 89%
    16:00 -5°C° 0.3 mm 3 mps 754 mmHg 91%
    17:00 -4°C° 0.3 mm 2 mps 754 mmHg 93%
    18:00 -4°C° 0.1 mm 2 mps 754 mmHg 94%
    19:00 -4°C° 0.1 mm 2 mps 754 mmHg 95%
    20:00 -1°C° 0.1 mm 1 mps 754 mmHg 96%
    21:00 -1°C° 0 mm 1 mps 754 mmHg 96%
    22:00 -1°C° 0 mm 1 mps 754 mmHg 96%
    23:00 -1°C° 0 mm 1 mps 754 mmHg 97%
    Show more